Temperature
-1 -0 -0 -0 0 1 1 2 3 4 4 3 3 2 2 1 1 0 0 0 1 1 1 2 2 3 3 3 4 4 4 4 4 4 4 5 5 5 5 5 5 5 5 5
-1 -1 -0 -1 -0 0 0 1 2 2 2 2 1 1 1 0 0 -0 -0 -0 -0 0 1 1 2 2 2 2 3 3 3 4 4 4 4 4 4 4 4 4 4 4 4 4
-1 -1 -0 -1 -1 -1 -1 -0 0 1 0 -0 0 -0 -0 -1 -1 -1 -1 -1 -1 -0 0 1 1 1 2 2 2 2 2 3 3 3 3 3 4 4 4 4 4 4 3 4
-2 -1 -2 -2 -2 -2 -1 -1 -1 -1 -1 -1 -1 -1 -1 -2 -1 -2 -2 -2 -1 -1 -0 0 1 1 1 1 2 2 2 2 2 3 3 3 3 3 3 3 3 3 3 3
-2 -2 -2 -2 -3 -3 -2 -2 -2 -2 -2 -2 -2 -2 -1 -2 -2 -2 -2 -2 -2 -1 -1 -0 0 0 1 1 1 1 1 2 2 2 2 2 2 2 2 2 2 2 2 2
-3 -3 -3 -3 -3 -3 -2 -2 -3 -3 -3 -3 -3 -1 -1 -3 -3 -3 -3 -2 -2 -1 -1 -1 -0 -0 0 0 1 1 1 1 1 1 2 2 2 2 2 2 2 2 2 2
-4 -3 -3 -4 -4 -3 -3 -3 -4 -4 -4 -4 -3 -3 -4 -4 -4 -3 -3 -3 -2 -2 -1 -1 -1 -1 -0 -0 0 0 0 1 1 1 1 1 1 1 1 1 1 1 1 1
-4 -4 -4 -5 -4 -4 -4 -5 -5 -5 -5 -5 -5 -5 -5 -5 -4 -4 -3 -3 -2 -2 -2 -2 -2 -1 -1 -1 -1 -1 -0 -0 0 0 0 0 0 0 1 1 1 1 1 0
-5 -5 -5 -5 -5 -6 -6 -6 -6 -6 -6 -6 -6 -6 -5 -5 -5 -4 -4 -3 -3 -3 -2 -2 -2 -2 -2 -2 -2 -1 -1 -1 -1 -1 -0 -0 -0 -0 -0 -0 -0 -0 -0 -0
-5 -5 -6 -6 -6 -6 -7 -7 -7 -7 -7 -7 -6 -6 -6 -6 -5 -5 -5 -4 -4 -3 -3 -3 -3 -3 -3 -3 -2 -2 -1 -1 -1 -1 -1 -1 -1 -1 -1 -1 -1 -1 -1 -1
-6 -6 -6 -7 -7 -7 -7 -7 -7 -7 -7 -7 -7 -7 -6 -6 -6 -6 -5 -5 -5 -4 -4 -4 -4 -3 -3 -3 -3 -2 -2 -2 -2 -2 -2 -2 -2 -2 -1 -1 -1 -1 -1 -1
-6 -7 -7 -7 -8 -8 -8 -8 -8 -8 -7 -7 -7 -7 -7 -6 -6 -6 -6 -5 -5 -5 -4 -4 -4 -4 -4 -3 -3 -3 -3 -3 -3 -3 -3 -3 -2 -2 -2 -2 -2 -2 -2 -2
-8 -8 -9 -9 -8 -8 -8 -8 -8 -8 -8 -7 -7 -7 -7 -7 -7 -7 -6 -6 -6 -5 -5 -5 -5 -4 -4 -4 -3 -3 -3 -3 -3 -3 -3 -3 -3 -3 -3 -3 -3 -2 -2 -2
-9 -9 -9 -9 -9 -9 -9 -8 -8 -8 -8 -8 -7 -7 -7 -7 -7 -7 -7 -6 -6 -6 -5 -5 -5 -5 -4 -4 -4 -4 -4 -4 -4 -4 -4 -4 -4 -3 -3 -3 -4 -4 -3 -3
-9 -9 -10 -9 -9 -9 -9 -8 -8 -8 -8 -8 -8 -8 -8 -8 -8 -7 -7 -7 -7 -6 -6 -6 -5 -5 -5 -5 -5 -4 -4 -4 -4 -4 -4 -4 -4 -4 -4 -4 -4 -4 -4 -4
-10 -9 -9 -9 -9 -9 -9 -9 -9 -9 -9 -9 -8 -8 -8 -8 -8 -8 -8 -7 -7 -7 -6 -6 -6 -6 -6 -5 -5 -5 -5 -5 -5 -5 -5 -4 -4 -4 -4 -4 -4 -4 -4 -4
-10 -10 -10 -10 -10 -9 -9 -9 -9 -9 -9 -9 -9 -9 -9 -9 -8 -8 -8 -8 -8 -7 -7 -7 -6 -6 -6 -6 -6 -6 -6 -5 -5 -5 -5 -5 -5 -5 -5 -5 -5 -5 -5 -5
-10 -10 -10 -10 -10 -10 -10 -10 -10 -10 -10 -10 -9 -9 -9 -9 -9 -9 -8 -8 -8 -8 -8 -7 -7 -7 -7 -7 -6 -6 -6 -6 -6 -6 -6 -5 -5 -5 -5 -5 -5 -5 -5 -5
-10 -10 -10 -10 -10 -10 -10 -10 -10 -10 -10 -10 -10 -10 -10 -9 -9 -9 -9 -9 -9 -8 -8 -8 -8 -8 -7 -7 -7 -7 -7 -7 -6 -6 -6 -6 -6 -6 -6 -6 -6 -6 -6 -6
-10 -10 -10 -10 -10 -10 -10 -10 -10 -10 -10 -10 -10 -10 -10 -10 -10 -10 -9 -9 -9 -9 -9 -8 -8 -8 -8 -8 -8 -8 -7 -7 -7 -7 -7 -7 -6 -6 -6 -6 -6 -6 -6 -6
-11 -11 -11 -11 -11 -11 -11 -11 -11 -11 -11 -11 -11 -11 -10 -10 -10 -10 -10 -10 -9 -9 -9 -9 -9 -8 -8 -8 -8 -8 -8 -8 -7 -7 -7 -7 -7 -7 -7 -7 -7 -7 -7 -7
-11 -11 -11 -11 -11 -11 -11 -11 -11 -11 -11 -11 -11 -11 -11 -10 -10 -10 -10 -10 -10 -10 -9 -9 -9 -9 -9 -9 -8 -8 -8 -8 -8 -8 -7 -7 -7 -7 -7 -7 -7 -7 -7 -7
-11 -11 -11 -11 -11 -11 -11 -11 -11 -11 -11 -11 -11 -11 -11 -11 -11 -11 -10 -10 -10 -10 -10 -9 -9 -9 -9 -9 -9 -9 -9 -8 -8 -8 -8 -8 -8 -8 -8 -8 -8 -8 -7 -7
-12 -12 -12 -12 -12 -12 -12 -12 -12 -12 -12 -12 -12 -11 -11 -11 -11 -11 -10 -10 -10 -10 -10 -10 -9 -9 -9 -9 -9 -9 -9 -9 -9 -8 -8 -8 -8 -8 -8 -8 -8 -8 -8 -8
-12 -12 -12 -12 -12 -12 -12 -12 -12 -12 -12 -12 -12 -12 -12 -11 -11 -11 -11 -10 -10 -10 -10 -10 -10 -10 -9 -9 -9 -9 -9 -9 -9 -9 -9 -8 -8 -8 -8 -8 -8 -8 -8 -8
-12 -13 -13 -13 -13 -13 -13 -13 -13 -12 -12 -12 -12 -12 -12 -11 -11 -11 -11 -11 -11 -10 -10 -10 -10 -10 -10 -10 -9 -9 -9 -9 -9 -9 -9 -9 -9 -9 -9 -9 -8 -8 -8 -8
-13 -13 -13 -13 -13 -13 -13 -13 -13 -13 -13 -13 -12 -12 -12 -12 -11 -11 -11 -11 -11 -11 -10 -10 -10 -10 -10 -10 -10 -10 -9 -9 -9 -9 -9 -9 -9 -9 -9 -9 -9 -9 -9 -9
Wind_Speed
7 8 5 5 5 4 4 6 6 5 5 5 5 6 5 4 4 5 6 6 6 4 3 3 2 2 2 2 1 2 3 3 3 4 5 6 6 6 6 7 7 6 6 6
5 4 3 4 6 3 3 5 6 5 5 5 6 6 6 5 5 6 7 7 7 5 4 4 3 3 2 2 2 2 2 3 3 3 4 5 5 6 6 6 6 6 6 6
3 5 2 2 4 3 2 4 3 4 4 6 6 6 6 6 6 7 7 7 8 7 6 5 4 3 2 2 1 2 2 2 3 3 3 4 5 6 6 6 6 6 6 5
2 2 1 2 4 5 2 5 5 5 6 7 7 6 6 5 6 7 8 9 9 8 7 6 4 3 2 1 1 2 2 2 3 3 3 3 4 5 5 5 5 5 5 5
1 1 1 2 5 7 5 4 7 8 9 10 9 5 4 7 9 9 9 9 9 8 7 5 4 3 2 1 2 2 2 2 3 3 4 4 4 4 5 5 5 4 4 5
1 1 1 4 10 11 4 2 8 10 10 9 8 5 6 10 11 10 10 8 8 7 6 4 3 2 2 2 2 2 2 2 2 3 4 4 4 4 4 4 5 4 4 4
1 1 1 7 12 7 1 5 11 10 9 8 6 6 9 11 11 10 9 8 7 6 4 4 2 1 2 1 2 2 1 2 2 3 3 4 4 3 4 5 5 4 4 3
1 1 2 9 8 5 6 9 9 9 9 9 9 9 9 10 10 10 9 8 7 5 4 3 1 1 1 1 1 1 2 3 3 3 3 3 4 3 4 5 5 4 4 3
1 1 4 7 6 6 7 8 9 9 10 9 9 9 10 10 9 9 8 7 6 5 4 3 2 1 0 1 1 2 3 3 3 3 2 3 4 4 4 4 4 4 4 3
1 3 6 8 8 9 8 9 10 10 9 9 8 9 10 9 8 8 7 6 5 4 4 4 3 2 1 0 1 3 3 3 3 3 2 2 3 3 4 4 4 4 4 4
2 5 7 7 10 11 11 11 10 10 10 9 9 9 9 8 8 8 7 6 5 4 4 4 3 3 2 1 2 3 3 2 2 2 2 2 2 2 2 3 4 4 4 4
3 6 6 8 11 12 11 11 11 11 11 10 9 9 9 8 7 7 7 6 5 5 5 4 4 3 3 2 1 2 2 2 2 2 2 2 2 2 2 2 2 2 2 3
4 6 6 8 9 11 10 11 11 10 10 10 10 9 8 7 7 7 7 7 6 6 5 4 4 4 4 3 2 1 1 1 2 2 2 2 2 3 2 2 2 2 2 2
6 5 5 7 9 10 10 10 10 10 10 9 9 9 8 7 8 8 8 7 7 6 6 5 5 5 5 4 3 2 1 1 1 1 2 2 2 2 2 2 2 1 1 2
7 7 6 7 9 10 10 10 10 10 11 11 10 9 8 8 8 8 8 7 6 6 6 6 5 6 5 4 3 2 2 1 1 1 1 1 2 2 2 2 2 2 1 1
8 7 6 8 9 11 11 11 10 10 10 10 10 10 9 8 8 8 8 7 7 7 7 6 6 6 5 4 3 2 2 2 1 0 1 1 1 2 2 2 2 2 2 2
6 7 8 10 10 11 10 9 9 9 9 9 9 9 8 8 8 8 8 8 7 6 6 6 6 5 5 4 3 2 1 1 1 0 0 1 1 1 2 2 2 2 2 3
5 6 6 7 8 9 9 9 9 9 9 8 8 8 8 8 8 8 8 8 7 7 7 7 6 5 5 4 3 2 1 1 1 0 0 1 1 1 2 2 2 3 2 2
6 6 7 8 7 7 8 8 9 9 9 8 8 8 7 7 7 8 8 7 7 7 7 8 9 6 5 5 4 2 2 1 1 1 1 1 1 1 2 2 2 3 3 2
7 7 7 8 8 7 7 8 8 8 8 8 7 7 7 8 8 7 7 6 6 6 7 7 7 6 5 5 5 3 2 2 2 2 1 2 2 2 2 2 2 3 3 3
7 7 8 8 8 8 7 8 7 8 8 8 7 7 7 8 7 7 6 6 7 7 7 8 6 5 5 5 5 3 3 2 2 2 2 2 2 2 2 2 3 3 3 3
7 7 8 8 8 8 8 7 7 7 8 8 8 7 7 8 8 7 6 5 6 9 7 6 5 6 7 7 4 4 3 3 3 3 2 2 2 2 3 3 3 3 3 3
6 7 7 7 7 8 8 7 7 7 7 8 8 8 7 7 6 6 6 6 6 9 7 6 7 9 9 6 4 4 3 3 3 3 3 3 3 3 3 3 3 3 3 3
6 7 7 7 7 6 7 8 7 6 7 7 7 7 7 6 6 5 5 8 10 10 7 7 10 10 9 5 4 4 4 4 3 3 3 3 3 3 3 3 4 4 4 4
6 6 6 7 6 6 7 7 7 7 7 6 7 7 6 5 6 7 7 8 10 9 6 7 10 9 6 4 4 4 4 4 4 4 3 3 3 3 3 4 4 4 4 4
6 6 6 6 5 5 5 5 6 6 6 7 7 6 6 6 6 6 6 7 8 8 7 6 6 6 5 4 4 4 4 4 4 4 4 4 4 4 4 4 5 4 4 4
5 5 5 5 5 5 5 5 6 6 6 7 8 7 7 7 7 7 7 6 6 6 6 5 5 5 5 4 4 4 4 4 4 4 4 4 4 4 4 4 4 4 4 4
Wind_Direction
280 292 298 310 304 271 242 235 229 238 263 295 325 338 342 342 348 351 352 351 346 344 339 339 339 328 301 259 233 207 182 181 190 191 186 183 181 178 177 178 179 180 178 176
282 294 319 332 336 312 281 268 249 262 294 337 340 342 344 343 342 338 335 334 334 332 326 317 311 304 293 270 235 211 189 183 183 178 171 169 172 171 171 175 174 175 180 173
285 306 295 320 341 342 359 346 316 286 317 338 338 340 334 328 330 328 329 328 324 317 311 306 300 290 277 262 223 195 183 173 172 166 158 162 164 164 165 167 168 170 174 173
297 324 200 71 27 354 2 10 5 4 353 341 328 321 331 338 336 331 325 319 314 310 305 300 295 288 275 241 193 169 165 166 166 157 152 149 157 162 164 162 164 168 171 173
267 261 277 6 360 344 316 335 9 360 347 341 335 324 334 349 338 326 318 311 307 302 295 291 287 274 241 211 182 172 178 170 168 160 156 154 157 163 164 161 161 165 169 167
295 279 277 2 343 330 298 316 10 354 343 338 336 318 318 332 327 324 324 319 313 308 302 291 283 250 204 203 189 199 198 177 166 162 163 165 162 158 158 158 160 159 161 169
319 281 331 354 337 335 336 334 334 331 330 329 320 307 310 318 320 324 326 323 320 316 310 299 279 213 193 200 213 213 174 145 140 146 153 157 154 154 151 152 153 153 156 167
342 306 338 352 354 6 333 325 327 329 330 330 326 321 322 323 323 326 330 330 331 331 330 327 315 180 179 211 218 159 132 128 129 129 129 134 134 138 143 146 148 154 156 163
351 338 334 344 350 342 338 336 337 335 330 330 327 327 330 329 327 329 333 335 339 346 352 355 359 47 146 233 170 135 126 124 120 112 118 133 140 144 145 149 154 160 166 172
325 320 334 343 349 351 350 343 337 335 334 336 334 334 335 335 335 337 341 343 347 359 7 3 6 18 36 72 123 123 123 123 124 124 124 129 140 152 158 164 166 170 174 179
317 319 334 347 348 346 345 346 347 347 345 343 342 340 340 338 341 343 343 345 351 358 6 5 8 15 18 33 124 122 116 121 132 135 140 140 141 154 168 179 184 183 190 191
320 326 323 319 334 342 346 348 348 348 349 350 348 343 343 344 345 348 349 353 359 3 6 6 8 11 9 10 84 123 123 130 140 145 146 146 140 109 80 142 144 167 186 197
308 320 318 315 333 344 346 345 347 348 347 346 347 347 347 348 350 354 357 358 358 358 359 3 9 7 2 3 23 100 137 152 153 154 157 159 162 156 141 101 114 146 166 190
338 340 335 338 336 340 344 345 349 353 353 351 349 350 353 355 356 357 357 356 358 2 4 7 12 7 1 8 26 55 72 98 148 165 165 165 167 167 165 166 171 177 175 184
350 345 325 326 337 344 347 350 356 357 356 357 358 0 1 0 358 355 354 357 3 8 7 8 11 3 1 9 24 43 56 67 87 129 148 151 152 152 156 165 178 194 202 199
330 338 344 347 346 346 350 354 354 350 351 352 356 357 358 358 357 358 360 1 5 3 358 0 2 357 358 8 18 28 38 41 35 86 143 140 148 159 168 182 196 208 217 229
339 342 343 342 342 343 346 346 345 343 345 347 348 349 354 357 359 1 1 0 1 357 354 357 356 354 358 4 8 13 16 25 23 37 131 173 189 194 199 209 218 223 231 238
334 326 325 324 327 333 338 342 343 343 342 340 342 349 354 356 354 350 349 351 357 1 360 357 357 358 1 3 1 360 358 348 340 324 263 232 234 230 227 230 231 238 246 244
341 339 339 338 336 334 335 337 339 338 338 340 344 346 347 348 347 345 345 349 353 351 348 349 350 354 356 356 350 346 343 335 330 314 279 249 256 248 241 241 245 249 246 246
341 341 341 340 340 338 334 334 335 336 338 340 341 343 345 344 343 343 344 343 339 333 331 337 343 348 349 349 345 341 335 325 314 302 287 264 259 261 261 257 257 253 248 248
336 335 336 336 335 335 334 333 333 335 337 341 341 338 336 334 337 338 338 335 336 340 338 339 343 342 342 339 338 334 329 321 311 298 283 274 269 265 261 261 261 252 246 247
327 327 329 330 330 329 331 332 331 331 334 336 336 334 333 334 336 335 329 319 323 333 336 334 335 337 337 332 329 326 321 315 308 298 286 279 273 269 267 263 262 259 251 251
319 320 321 322 321 318 321 327 330 330 329 330 329 328 327 325 326 325 325 328 329 331 331 326 330 332 332 330 323 317 313 310 304 296 286 281 277 274 274 272 271 266 256 253
318 318 317 317 317 318 322 326 326 324 322 320 321 321 320 320 322 321 312 316 324 324 322 321 327 329 330 326 320 316 312 307 303 297 290 282 278 276 274 272 272 271 264 261
312 312 315 319 318 316 315 318 321 322 324 323 323 324 320 315 311 313 314 316 321 322 320 320 324 326 326 317 316 313 310 305 303 300 294 287 281 277 274 271 270 270 265 261
311 310 307 305 303 305 310 314 316 318 320 320 320 321 320 318 314 313 313 315 315 317 317 315 317 319 317 312 310 308 305 304 304 301 295 289 282 276 272 269 270 267 266 265
310 311 309 310 312 313 312 310 309 312 314 313 312 313 315 317 316 317 315 313 314 314 314 313 313 313 310 309 307 306 304 303 301 297 292 287 281 276 274 272 272 271 270 268
Height
1463 1460 1458 1457 1455 1453 1452 1448 1446 1444 1445 1449 1451 1453 1453 1453 1452 1451 1450 1449 1448 1448 1447 1447 1447 1447 1448 1448 1449 1450 1451 1452 1454 1456 1457 1459 1462 1464 1467 1470 1472 1475 1477 1479
1463 1459 1457 1458 1458 1456 1454 1453 1450 1450 1453 1455 1456 1455 1454 1453 1452 1451 1450 1449 1448 1447 1446 1446 1445 1445 1445 1445 1446 1447 1448 1449 1451 1453 1454 1456 1458 1461 1464 1466 1469 1472 1474 1476
1459 1458 1455 1459 1463 1461 1459 1459 1456 1453 1458 1458 1457 1456 1456 1454 1453 1451 1450 1448 1447 1445 1444 1443 1443 1443 1443 1443 1444 1445 1446 1447 1448 1450 1451 1453 1455 1457 1460 1463 1466 1468 1471 1473
1461 1460 1463 1466 1467 1465 1463 1462 1462 1461 1461 1459 1458 1457 1455 1454 1452 1451 1449 1447 1445 1444 1443 1442 1441 1441 1441 1441 1441 1442 1443 1444 1446 1447 1449 1451 1453 1455 1457 1460 1463 1465 1468 1470
1464 1461 1462 1465 1468 1468 1465 1462 1464 1463 1461 1460 1457 1454 1453 1453 1452 1450 1448 1446 1443 1441 1440 1439 1439 1439 1439 1439 1439 1440 1441 1442 1444 1445 1447 1449 1451 1453 1455 1458 1460 1462 1465 1467
1468 1465 1466 1471 1471 1468 1466 1462 1466 1465 1463 1461 1458 1454 1452 1452 1450 1447 1445 1443 1440 1438 1437 1436 1436 1436 1436 1436 1437 1438 1439 1440 1442 1443 1445 1447 1449 1451 1453 1455 1458 1460 1462 1465
1472 1470 1470 1476 1473 1468 1467 1468 1468 1466 1464 1461 1459 1458 1455 1451 1448 1445 1442 1440 1438 1435 1434 1433 1433 1433 1433 1434 1435 1436 1437 1438 1440 1441 1443 1445 1447 1449 1451 1453 1455 1457 1460 1462
1476 1475 1478 1478 1474 1474 1474 1471 1468 1466 1463 1461 1458 1455 1452 1449 1445 1443 1440 1437 1435 1433 1432 1431 1431 1431 1431 1432 1433 1434 1435 1436 1437 1439 1441 1443 1445 1447 1449 1451 1453 1455 1457 1459
1484 1484 1483 1481 1479 1478 1475 1472 1468 1465 1463 1460 1456 1453 1450 1447 1444 1441 1438 1436 1434 1432 1430 1430 1430 1429 1429 1430 1431 1432 1433 1434 1436 1437 1439 1441 1443 1445 1447 1449 1450 1452 1454 1456
1485 1484 1483 1481 1479 1477 1475 1472 1468 1465 1462 1459 1455 1451 1448 1445 1442 1440 1437 1435 1433 1431 1429 1429 1428 1428 1428 1428 1429 1430 1431 1432 1434 1436 1437 1439 1441 1443 1445 1446 1448 1450 1452 1453
1487 1486 1483 1481 1480 1478 1474 1471 1467 1464 1461 1458 1454 1450 1448 1445 1442 1439 1437 1435 1433 1431 1429 1428 1428 1427 1427 1427 1428 1428 1429 1431 1432 1434 1436 1437 1439 1441 1443 1444 1446 1448 1449 1451
1489 1489 1487 1484 1480 1477 1474 1470 1467 1463 1459 1456 1454 1450 1447 1444 1442 1439 1437 1435 1433 1431 1430 1429 1428 1427 1427 1427 1427 1427 1428 1429 1431 1432 1434 1436 1437 1439 1440 1442 1444 1446 1447 1449
1492 1489 1487 1484 1481 1477 1474 1470 1467 1464 1460 1456 1453 1450 1447 1444 1442 1439 1437 1435 1433 1431 1430 1429 1428 1427 1426 1426 1427 1427 1427 1428 1429 1431 1432 1434 1436 1437 1438 1440 1442 1443 1444 1446
1491 1488 1485 1483 1480 1477 1474 1470 1467 1463 1460 1457 1453 1450 1447 1444 1441 1439 1437 1435 1433 1432 1430 1429 1428 1427 1426 1426 1426 1426 1427 1427 1428 1430 1431 1432 1434 1435 1436 1437 1438 1439 1441 1442
1490 1488 1486 1483 1480 1476 1473 1470 1466 1463 1460 1456 1453 1450 1447 1444 1441 1439 1437 1436 1434 1432 1430 1429 1428 1427 1426 1426 1426 1426 1426 1426 1427 1428 1429 1430 1432 1433 1434 1435 1436 1437 1437 1438
1489 1487 1484 1482 1479 1475 1472 1469 1466 1463 1460 1457 1453 1451 1448 1445 1442 1440 1438 1436 1434 1432 1430 1429 1428 1427 1426 1426 1425 1425 1425 1426 1426 1427 1428 1429 1430 1431 1432 1433 1433 1434 1434 1435
1488 1485 1482 1480 1478 1475 1472 1469 1466 1463 1460 1457 1454 1451 1448 1445 1443 1441 1438 1437 1434 1432 1431 1429 1428 1427 1426 1426 1425 1425 1425 1425 1425 1426 1427 1427 1428 1429 1430 1430 1431 1431 1432 1432
1488 1486 1483 1481 1478 1474 1471 1468 1466 1463 1460 1457 1454 1451 1448 1445 1443 1441 1439 1436 1434 1432 1431 1429 1428 1427 1426 1425 1425 1424 1424 1424 1424 1424 1425 1426 1426 1427 1427 1428 1428 1428 1428 1429
1487 1485 1482 1480 1477 1474 1471 1468 1465 1462 1459 1456 1453 1451 1448 1445 1443 1441 1439 1436 1434 1432 1431 1429 1428 1426 1425 1425 1424 1424 1423 1423 1423 1423 1423 1423 1424 1424 1424 1424 1425 1425 1425 1425
1486 1483 1481 1478 1476 1473 1470 1467 1464 1461 1458 1456 1453 1450 1447 1445 1443 1441 1438 1436 1434 1432 1430 1429 1428 1426 1425 1424 1424 1423 1423 1422 1421 1421 1421 1421 1421 1421 1421 1421 1421 1421 1421 1421
1484 1482 1479 1477 1474 1471 1469 1466 1463 1460 1457 1455 1452 1449 1447 1445 1443 1440 1438 1435 1434 1432 1430 1429 1427 1426 1425 1424 1423 1422 1421 1420 1420 1419 1419 1418 1418 1418 1418 1417 1418 1418 1418 1418
1483 1480 1478 1475 1472 1470 1467 1465 1462 1459 1456 1454 1451 1449 1446 1444 1442 1439 1437 1435 1433 1432 1430 1428 1427 1425 1424 1423 1422 1421 1419 1418 1417 1417 1416 1416 1415 1415 1414 1414 1414 1414 1414 1414
1481 1478 1476 1473 1471 1468 1466 1463 1460 1457 1455 1452 1450 1447 1445 1443 1440 1438 1436 1434 1432 1431 1429 1427 1426 1424 1423 1422 1420 1419 1418 1416 1415 1414 1414 1413 1413 1412 1411 1411 1411 1410 1410 1410
1478 1476 1474 1471 1468 1466 1463 1461 1458 1456 1453 1451 1449 1446 1444 1441 1439 1437 1435 1433 1431 1429 1427 1426 1424 1422 1421 1420 1418 1417 1415 1414 1413 1412 1411 1411 1410 1409 1409 1408 1408 1407 1407 1407
1476 1473 1471 1468 1466 1463 1461 1458 1456 1454 1451 1449 1447 1444 1442 1440 1437 1435 1433 1431 1429 1427 1425 1423 1422 1420 1418 1417 1416 1414 1413 1412 1411 1409 1409 1408 1407 1407 1406 1405 1405 1404 1404 1403
1472 1470 1468 1465 1463 1461 1458 1456 1454 1451 1449 1446 1444 1442 1440 1438 1436 1433 1431 1429 1427 1425 1423 1421 1419 1418 1416 1415 1413 1412 1410 1409 1408 1407 1406 1405 1404 1404 1403 1402 1402 1401 1400 1400
1469 1467 1465 1462 1460 1458 1456 1453 1451 1449 1447 1444 1442 1440 1438 1435 1433 1431 1429 1426 1424 1422 1420 1418 1417 1415 1414 1412 1411 1409 1408 1407 1405 1404 1403 1402 1401 1401 1400 1399 1398 1398 1397 1397